Lexington Weather

Lexington, Massachusetts, USA

73°F
9/22/2021 1:52pm 
  • Lexington Conditions: Overcast
  • Temperature: 72.9°F / 22.7°CColder 2.1°F than last hour.
  • Dew Point: 68.7°FIncreased 0.3°Fsince last hour.
  • Relative Humidity: 87%Increased 7.0% since last hour.
  • Wind: Wind from NW NW 5 mph, 10-min avg: 3 mph, gust: 10 mph
  • Barometer: 30.10 in Steady
  • Visibility: 10 miles
  • Rain Today: 0.00 in
  •   

Regional Weather Roundup
for Boston / Norton, MA

        
000
ASUS41 KBOX 220604
RWRBOX

REGIONAL WEATHER ROUNDUP
NATIONAL WEATHER SERVICE BOSTON/NORTON MA
200 AM EDT WED SEP 22 2021

NOTE:  "FAIR" INDICATES FEW OR NO CLOUDS BELOW 12,000 FEET WITH NO 
SIGNIFICANT WEATHER AND/OR OBSTRUCTIONS TO VISIBILITY.

MAZALL-220700-
EASTERN MASSACHUSETTS
  
CITY           SKY/WX    TMP DP  RH WIND       PRES   REMARKS
BOSTON         CLOUDY    69  65  86 SE3       30.28F                  
6HR MIN TEMP:  67; 6HR MAX TEMP:  71;                                

BEVERLY        CLOUDY    68  66  93 SE6       30.28F                  
LAWRENCE       CLOUDY    68  66  93 SE3       30.30F                  
BEDFORD        CLOUDY    66  64  93 CALM      30.27S                  
BLUE HILL      NOT AVBL                                               
NORWOOD        CLOUDY    69  66  90 SE3       30.27F                  
MARSHFIELD     CLOUDY    66  66 100 CALM      30.27F                  
PLYMOUTH       MOCLDY    67  65  93 S3        30.28F                  
TAUNTON        CLEAR     68  65  90 SE3       30.27F                  
NEW BEDFORD    CLEAR     69  67  93 SE8       30.27F                  
$$

MAZALL-220700-
CAPE COD AND THE ISLANDS
  
CITY           SKY/WX    TMP DP  RH WIND       PRES   REMARKS
FALMOUTH       CLOUDY    68  66  94 SE8       30.29F                  
HYANNIS        PTCLDY    69  65  86 VRB5      30.28F                  
CHATHAM        MOCLDY    67  61  81 VRB7      30.31F                  
PROVINCETOWN   PTCLDY    66  64  93 SE7       30.29F                  
NANTUCKET      CLEAR     69  65  86 SE13      30.29F                  
MARTHAS VNYRD  PTCLDY    68  66  93 SE10      30.28F                  
$$
 
MAZALL-220700-
CENTRAL AND WESTERN MASSACHUSETTS
  
CITY           SKY/WX    TMP DP  RH WIND       PRES   REMARKS
WORCESTER      CLOUDY    64  63  96 CALM      30.29F FOG              
6HR MIN TEMP:  62; 6HR MAX TEMP:  65; 6HR PCP: TRACE;                

FITCHBURG      CLOUDY    63  59  87 SE3       30.28F                  
ORANGE         CLOUDY    61  59  93 CALM      30.28F                  
SPRINGFIELD    LGT RAIN  63  63 100 CALM      30.24F                  
WESTFIELD      LGT RAIN  63  63 100 N5        30.25F                  
NORTH ADAMS    PTCLDY    62  58  86 SE8       30.24F                  
PITTSFIELD     CLOUDY    60  58  92 CALM      30.25F                  
$$
 
RIZALL-220700-
RHODE ISLAND
  
CITY           SKY/WX    TMP DP  RH WIND       PRES   REMARKS
PROVIDENCE     MOCLDY    70  68  93 CALM      30.27F                  
6HR MIN TEMP:  69; 6HR MAX TEMP:  70; 6HR PCP:  0.01;                

NEWPORT        CLEAR     68  67  96 SE9       30.26F                  
BLOCK ISLAND   CLEAR     69  66  90 SE7       30.26F                  
SMITHFIELD     CLOUDY    67  67 100 CALM      30.28F                  
WESTERLY       CLOUDY    68  68 100 E5        30.26F                  
$$
 
CTZALL-220700-
CONNECTICUT
  
CITY           SKY/WX    TMP DP  RH WIND       PRES   REMARKS
BRADLEY INTL   CLOUDY    64  61  90 NW3       30.25F                  
6HR MIN TEMP:  60; 6HR MAX TEMP:  66; 6HR PCP: TRACE;                

HARTFORD       CLOUDY    67  62  84 CALM      30.24F                  
BRIDGEPORT     MOCLDY    72  69  90 E7        30.22F                  
DANBURY        CLOUDY    69  65  86 CALM      30.24F                  
GROTON         CLOUDY    71  68  90 SE7       30.24F                  
NEW HAVEN      CLOUDY    71  69  93 E3        30.23F                  
CHESTER        CLOUDY    66  66 100 CALM      30.25F                  
MERIDEN        CLOUDY    65  62  90 CALM      30.24F                  
WILLIMANTIC    CLOUDY    63  62  97 CALM      30.27F                  
OXFORD         CLOUDY    66  66 100 SE9       30.25F FOG              
$$

MEZ002-015-021-024-NHZ003-005-008-011-012-014-VTZ005-008-220700-
NORTHERN NEW ENGLAND
  
CITY           SKY/WX    TMP DP  RH WIND       PRES   REMARKS
PORTLAND ME    CLOUDY    63  62  97 CALM      30.30F                  
6HR MIN TEMP:  57; 6HR MAX TEMP:  63;                                

BANGOR ME      CLOUDY    60  59  96 CALM      30.31F                  
CONCORD NH     CLOUDY    61  59  93 CALM      30.29F                  
MANCHESTER NH  CLOUDY    65  61  87 W7        30.26F                  
NASHUA NH      CLOUDY    63  63 100 NW9       30.28F                  
PORTSMOUTH NH  CLOUDY    63  63 100 SE2       30.29F FOG              
JAFFREY NH     CLOUDY    60  59  96 CALM      30.29F                  
KEENE NH       CLOUDY    58  57  97 SW3       30.27F                  
BURLINGTON VT  MOCLDY    65  56  72 S10       30.19F                  
MT. WASHINGTON MOCLDY    45  39  81 SW31G39     N/A                   
$$

NYZ052-076-220700-
EASTERN NEW YORK
  
CITY           SKY/WX    TMP DP  RH WIND       PRES   REMARKS
ALBANY         MOCLDY    62  60  93 SE9       30.21F                  
6HR MIN TEMP:  61; 6HR MAX TEMP:  64;                                

NEW YORK CITY  CLOUDY    73  69  87 SE7       30.19F                  
6HR MIN TEMP:  72; 6HR MAX TEMP:  74; 6HR PCP:  0.01;                

$$
 
ANZALL-220700-
MARINE OBSERVATIONS
  
STATION/POSITION TIME  TEMP    WIND        PRES    VSBY  WAVE
                       AIR SEA DIR/SP/G                  HT/PER
                 (UTC) (F)     (DEG/KT/KT) (MB)    (MI)  (FT/S)
BOSTON BUOY      0540      65  140/  8/ 10 1025.7F
BUZZARDS BAY     0500          130/ 16/ 17 1026.1F
NANTUCKET SOUND  0530   71 72  140/ 14/ 17 1025.7F
MASS BAY-STELLWA 0504   66     160/ 12/ 14 1025.2F  1 7/8  3/ 5
ISLE OF SHOALS   0500   66     170/ 11/ 12 1025.3F
S OF BLOCK IS    0526      70                N/A           4/11
$$

......................KEY.........................
  SKY/WX - SKY CONDITION/PRESENT WEATHER
  TMP    - TEMPERATURE IN FAHRENHEIT
  DWPT   - DEWPOINT IN FAHRENHEIT
  RH     - RELATIVE HUMIDITY IN PERCENT
  WIND   - DIRECTION AND SPEED IN MPH
  PRES   - MEAN SEA LEVEL PRESSURE IN INCHES OF HG
  WCI    - WIND CHILL INDEX
  VSB    - VISIBILITY IN MILES
  HX     - HEAT INDEX
  TC     - TEMPERATURE IN CELSIUS
  VRB    - VARIABLE WIND DIRECTION
  N/A    - NOT AVAILABLE
  
      

Other recent Regional Weather Roundups

Wed Sep 22, 1:04pm

Wed Sep 22, 12:05pm

Wed Sep 22, 11:04am

Wed Sep 22, 10:04am

Wed Sep 22, 9:04am

Wed Sep 22, 8:04am

Wed Sep 22, 7:04am

Wed Sep 22, 6:04am

Wed Sep 22, 5:04am

Wed Sep 22, 4:04am

Wed Sep 22, 3:04am

Wed Sep 22, 1:04am

Wed Sep 22, 12:04am

Tue Sep 21, 11:04pm

Tue Sep 21, 10:04pm

Tue Sep 21, 9:04pm

Tue Sep 21, 8:04pm

Tue Sep 21, 7:04pm

Tue Sep 21, 6:04pm

Tue Sep 21, 5:04pm

Tue Sep 21, 4:04pm

Tue Sep 21, 3:04pm

Tue Sep 21, 2:04pm

Tue Sep 21, 1:04pm

Tue Sep 21, 12:04pm

Tue Sep 21, 11:04am

Tue Sep 21, 10:04am

Tue Sep 21, 9:04am

Tue Sep 21, 8:04am

Tue Sep 21, 7:04am

Tue Sep 21, 6:04am

Tue Sep 21, 5:04am

Tue Sep 21, 4:04am

Tue Sep 21, 3:04am

Tue Sep 21, 2:04am

Tue Sep 21, 1:04am

Tue Sep 21, 12:04am

Mon Sep 20, 11:04pm

Mon Sep 20, 10:04pm

Mon Sep 20, 9:04pm

Mon Sep 20, 8:04pm

Mon Sep 20, 7:04pm

Mon Sep 20, 6:04pm

Mon Sep 20, 5:04pm

Mon Sep 20, 4:04pm

Mon Sep 20, 3:04pm

Mon Sep 20, 2:04pm

Mon Sep 20, 1:04pm

Mon Sep 20, 12:04pm

Mon Sep 20, 11:04am

Mon Sep 20, 10:04am

Mon Sep 20, 9:04am

Mon Sep 20, 7:04am

Mon Sep 20, 6:04am

Mon Sep 20, 5:04am

Mon Sep 20, 4:04am

Mon Sep 20, 3:04am

Mon Sep 20, 2:04am

Mon Sep 20, 1:04am

Mon Sep 20, 12:04am

Sun Sep 19, 11:04pm

Sun Sep 19, 10:04pm

Sun Sep 19, 9:04pm

Sun Sep 19, 8:04pm

Sun Sep 19, 7:04pm

Sun Sep 19, 6:04pm

Sun Sep 19, 5:04pm

Sun Sep 19, 4:04pm

Sun Sep 19, 3:04pm

Sun Sep 19, 2:05pm

Sun Sep 19, 1:04pm

Sun Sep 19, 12:04pm

Sun Sep 19, 11:04am

Sun Sep 19, 10:05am

Sun Sep 19, 9:04am

Sun Sep 19, 8:04am

Sun Sep 19, 7:04am

Sun Sep 19, 6:04am

Sun Sep 19, 5:04am

Sun Sep 19, 4:04am

Sun Sep 19, 3:04am

Sun Sep 19, 2:04am

Sun Sep 19, 1:04am

Sun Sep 19, 12:04am

Sat Sep 18, 11:05pm

Sat Sep 18, 10:04pm

Sat Sep 18, 9:04pm

Sat Sep 18, 8:04pm

Sat Sep 18, 7:04pm

Sat Sep 18, 6:04pm

Sat Sep 18, 5:04pm

Sat Sep 18, 4:04pm

Sat Sep 18, 3:04pm

Sat Sep 18, 2:04pm

Sat Sep 18, 1:04pm

Sat Sep 18, 12:04pm

Sat Sep 18, 11:04am

Sat Sep 18, 10:04am

Sat Sep 18, 9:04am

Sat Sep 18, 8:04am

Sat Sep 18, 7:04am

Sat Sep 18, 6:04am

Sat Sep 18, 5:04am

Sat Sep 18, 4:04am

Sat Sep 18, 3:04am

Sat Sep 18, 2:04am

Sat Sep 18, 1:04am

Sat Sep 18, 12:04am

Fri Sep 17, 11:04pm

Fri Sep 17, 10:04pm

Fri Sep 17, 9:04pm

Fri Sep 17, 8:04pm

Fri Sep 17, 7:04pm

Fri Sep 17, 6:04pm

Fri Sep 17, 5:04pm

Fri Sep 17, 4:04pm

Fri Sep 17, 3:04pm

Fri Sep 17, 2:04pm

Fri Sep 17, 1:04pm

Fri Sep 17, 12:05pm

Fri Sep 17, 11:04am

Fri Sep 17, 10:04am

Fri Sep 17, 9:04am

Fri Sep 17, 8:04am

Fri Sep 17, 7:04am

Fri Sep 17, 6:04am

Fri Sep 17, 5:04am

Fri Sep 17, 4:04am

Fri Sep 17, 3:04am

Fri Sep 17, 2:04am

Fri Sep 17, 1:04am

Fri Sep 17, 12:04am

Thu Sep 16, 11:04pm

Thu Sep 16, 10:04pm

Thu Sep 16, 9:04pm

Thu Sep 16, 8:04pm

Thu Sep 16, 7:04pm

Thu Sep 16, 6:04pm

Thu Sep 16, 5:04pm

Thu Sep 16, 4:04pm

Thu Sep 16, 3:04pm

Thu Sep 16, 2:04pm

Thu Sep 16, 1:05pm

Thu Sep 16, 12:04pm

Thu Sep 16, 11:05am

Thu Sep 16, 10:05am

Thu Sep 16, 9:04am

Thu Sep 16, 8:04am

Thu Sep 16, 7:04am

Thu Sep 16, 6:04am

Thu Sep 16, 5:04am

Thu Sep 16, 4:04am

Thu Sep 16, 3:04am

Thu Sep 16, 2:04am

Thu Sep 16, 1:04am

Thu Sep 16, 12:04am

Wed Sep 15, 11:04pm

Wed Sep 15, 10:04pm

Wed Sep 15, 9:04pm

Wed Sep 15, 8:04pm

Wed Sep 15, 7:04pm

Wed Sep 15, 6:04pm

Wed Sep 15, 5:05pm

Wed Sep 15, 4:04pm

Wed Sep 15, 3:04pm

Wed Sep 15, 2:04pm

Meta data:

ID: 7864974b-404d-4ee2-aa30-87098453140c
Link: https://api.weather.gov/products/7864974b-404d-4ee2-aa30-87098453140c